Weather History for Limnos, Greece

Change the Weather History Date:

Tuesday, April 9, 2013

  Actual Average Record
Temperature  
Mean Temperature 50 °F -  
Max Temperature 57 °F 65 °F 69 °F (1998)
Min Temperature 44 °F 50 °F 28 °F (2003)
Degree Days  
Heating Degree Days 14    
Moisture  
Dew Point 43 °F    
Average Humidity 77    
Maximum Humidity 93    
Minimum Humidity 59    
Precipitation  
Precipitation 0.00 in 0.04 in - ()
Sea Level Pressure  
Sea Level Pressure 29.96 in    
Wind  
Wind Speed 7 mph ()    
Max Wind Speed 13 mph    
Max Gust Speed -    
Visibility 6.2 miles    
Events      
Averages and records for this station are not official NWS values.
T = Trace of Precipitation, MM = Missing Value Source: Averaged Metar Reports

Daily Weather History Graph

Daily Weather History Graph

Search for Another Location

Airport:

Trip Planner

Search our weather history database for the weather conditions in past years. The results will help you decide how hot, cold, wet, or windy it might be!

Date:

Astronomy

Apr. 09, 2013 Rise Set
Actual Time 6:50 AM EEST 7:51 PM EEST
Civil Twilight 6:22 AM EEST 8:19 PM EEST
Nautical Twilight 5:50 AM EEST 8:52 PM EEST
Astronomical Twilight 5:15 AM EEST 9:26 PM EEST
Moon 6:02 AM EEST (4/9) 7:07 PM EEST (4/9)
Length of Visible Light 13h 56m
Length of Day
13h 00m
Waning Crescent, 1% of the Moon is Illuminated
Apr 9
Waning Crescent
Apr 10
New
Apr 18
First Quarter
Apr 25
Full
May 2
Last Quarter

Hourly Weather History & Observations

Time (EEST) Temp. Windchill Dew Point Humidity Pressure Visibility Wind Dir Wind Speed Gust Speed Precip Events Conditions
12:20 AM 46.4 °F 41.5 °F 42.8 °F 87% 29.92 in - ENE 10.4 mph - N/A   Unknown
12:50 AM 46.4 °F 42.9 °F 41.0 °F 81% 29.92 in - ENE 6.9 mph - N/A   Unknown
1:20 AM 46.4 °F 41.9 °F 42.8 °F 87% 29.92 in - NE 9.2 mph - N/A   Unknown
1:50 AM 46.4 °F 41.5 °F 42.8 °F 87% 29.92 in - ENE 10.4 mph - N/A   Unknown
2:20 AM 46.4 °F 40.7 °F 42.8 °F 87% 29.92 in - NE 12.7 mph - N/A   Unknown
2:50 AM 46.4 °F 41.5 °F 42.8 °F 87% 29.92 in 6.2 mi ENE 10.4 mph - N/A   Mostly Cloudy
3:00 AM 47 °F - 42 °F 76% 29.93 in 6 mi ENE 10.4 mph - -   Partly Cloudy
3:20 AM 46.4 °F 41.1 °F 42.8 °F 87% 29.92 in - ENE 11.5 mph - N/A   Unknown
3:50 AM 46.4 °F 41.1 °F 41.0 °F 81% 29.92 in - ENE 11.5 mph - N/A   Unknown
4:20 AM 46.4 °F 41.1 °F 41.0 °F 81% 29.92 in - ENE 11.5 mph - N/A   Unknown
4:50 AM 46.4 °F 41.9 °F 41.0 °F 81% 29.92 in - ENE 9.2 mph - N/A   Unknown
5:20 AM 46.4 °F 41.9 °F 41.0 °F 81% 29.92 in - ENE 9.2 mph - N/A   Unknown
5:50 AM 46.4 °F 41.9 °F 41.0 °F 81% 29.95 in 6.2 mi ENE 9.2 mph - N/A   Mostly Cloudy
6:20 AM 46.4 °F 41.9 °F 42.8 °F 87% 29.95 in 6.2 mi ENE 9.2 mph - N/A   Mostly Cloudy
6:50 AM 46.4 °F 42.9 °F 41.0 °F 81% 29.95 in 6.2 mi ENE 6.9 mph - N/A   Mostly Cloudy
7:20 AM 46.4 °F 42.9 °F 41.0 °F 81% 29.95 in 6.2 mi ENE 6.9 mph - N/A   Mostly Cloudy
7:50 AM 48.2 °F - 41.0 °F 76% 29.95 in 6.2 mi ENE 6.9 mph - N/A   Mostly Cloudy
8:20 AM 48.2 °F - 42.8 °F 82% 29.95 in 6.2 mi ENE 8.1 mph - N/A   Mostly Cloudy
8:50 AM 48.2 °F - 42.8 °F 82% 29.95 in 6.2 mi ENE 8.1 mph - N/A   Mostly Cloudy
9:00 AM 50 °F - 42 °F 67% 29.96 in 6 mi ENE 8.1 mph - -   Partly Cloudy
9:20 AM 51.8 °F - 42.8 °F 71% 29.95 in 6.2 mi ENE 8.1 mph - N/A   Mostly Cloudy
9:50 AM 51.8 °F - 42.8 °F 71% 29.95 in 6.2 mi ENE 6.9 mph - N/A   Mostly Cloudy
10:20 AM 51.8 °F - 42.8 °F 71% 29.98 in 6.2 mi ENE 4.6 mph - N/A   Mostly Cloudy
10:50 AM 51.8 °F - 42.8 °F 71% 29.98 in 6.2 mi Variable 3.5 mph - N/A   Mostly Cloudy
11:20 AM 51.8 °F - 42.8 °F 71% 29.98 in 6.2 mi Variable 3.5 mph - N/A   Mostly Cloudy
11:50 AM 51.8 °F - 42.8 °F 71% 29.98 in 6.2 mi Variable 3.5 mph - N/A   Mostly Cloudy
12:20 PM 53.6 °F - 44.6 °F 72% 29.98 in 6.2 mi Variable 3.5 mph - N/A   Mostly Cloudy
12:50 PM 51.8 °F - 42.8 °F 71% 30.01 in 6.2 mi Variable 3.5 mph - N/A   Mostly Cloudy
1:20 PM 55.4 °F - 44.6 °F 67% 29.98 in 6.2 mi ENE 4.6 mph - N/A   Scattered Clouds
1:50 PM 53.6 °F - 44.6 °F 72% 29.98 in 6.2 mi NE 5.8 mph - N/A   Mostly Cloudy
2:50 PM 53.6 °F - 44.6 °F 72% 29.98 in 6.2 mi Variable 3.5 mph - N/A   Mostly Cloudy
3:00 PM 54 °F - 44 °F 59% 29.99 in 6 mi 3.5 mph - -   Partly Cloudy
3:20 PM 53.6 °F - 44.6 °F 72% 29.98 in 6.2 mi Variable 3.5 mph - N/A   Mostly Cloudy
3:50 PM 53.6 °F - 44.6 °F 72% 29.98 in 6.2 mi Variable 3.5 mph - N/A   Mostly Cloudy
4:20 PM 55.4 °F - 44.6 °F 67% 29.98 in 6.2 mi Variable 3.5 mph - N/A   Mostly Cloudy
4:50 PM 55.4 °F - 44.6 °F 67% 29.98 in 6.2 mi Variable 3.5 mph - N/A   Scattered Clouds
5:20 PM 55.4 °F - 44.6 °F 67% 29.95 in 6.2 mi Variable 3.5 mph - N/A   Scattered Clouds
5:50 PM 55.4 °F - 44.6 °F 67% 29.95 in 6.2 mi Variable 3.5 mph - N/A   Scattered Clouds
6:20 PM 57.2 °F - 46.4 °F 67% 29.95 in 6.2 mi Calm Calm - N/A   Scattered Clouds
6:50 PM 53.6 °F - 44.6 °F 72% 29.95 in 6.2 mi Variable 3.5 mph - N/A   Scattered Clouds
7:20 PM 53.6 °F - 44.6 °F 72% 29.95 in 6.2 mi Variable 3.5 mph - N/A   Scattered Clouds
7:50 PM 51.8 °F - 44.6 °F 76% 29.95 in 6.2 mi Variable 3.5 mph - N/A   Scattered Clouds
8:20 PM 50.0 °F - 44.6 °F 82% 29.98 in 6.2 mi Variable 3.5 mph - N/A   Partly Cloudy
8:50 PM 50.0 °F - 44.6 °F 82% 29.98 in 6.2 mi Calm Calm - N/A   Partly Cloudy
9:00 PM 50 °F - 44 °F 73% 29.99 in 6 mi Calm Calm - -   Scattered Clouds
9:20 PM 48.2 °F - 42.8 °F 82% 29.98 in 6.2 mi Calm Calm - N/A   Partly Cloudy
9:50 PM 46.4 °F 45.2 °F 42.8 °F 87% 30.01 in 6.2 mi Variable 3.5 mph - N/A   Partly Cloudy
10:20 PM 46.4 °F 45.2 °F 42.8 °F 87% 30.01 in 6.2 mi Variable 3.5 mph - N/A   Partly Cloudy
10:50 PM 46.4 °F 45.2 °F 42.8 °F 87% 30.01 in 6.2 mi Variable 3.5 mph - N/A   Partly Cloudy
11:20 PM 44.6 °F 43.1 °F 42.8 °F 93% 29.98 in 6.2 mi Variable 3.5 mph - N/A   Partly Cloudy
11:50 PM 44.6 °F 43.1 °F 42.8 °F 93% 30.01 in 6.2 mi Variable 3.5 mph - N/A   Partly Cloudy